Starlink 3672

operational
NORAD ID: 51974 Int'l Des: 2022-025 Owner: SPXS Country: US Constellation: starlink
LEOCIRCULARSTARLINK_TYPE

关于 Starlink 3672

正在加载描述...

实时位置

正在加载3D地球...

即将过境

高度历史

Altitude vs Time

uPlot chart will show altitude changes over time

两行轨道根数

1 51974U 22025U 25259.25716163 .00000860 00000-0 76640-4 0 9992
2 51974 53.0550 93.9438 0001338 92.2366 267.8776 15.06398754194628
Epoch: Sep 16, 2025 • Age: 8 hours

当前状态

高度 552.7 km
速度 7.59 km/s
星下点 52.72°N, 41.71°W
发射日期 Mar 9, 2022
运行时间 3.5 years
类型 internet

技术详情

分类 Payload
质量 297.00 kg
干质量 275.00 kg
总质量 297.00 kg
长度 0.20 m
直径 2.80 m
跨度 9.00 m
形状 Box + pan
制造商 SPXS
平台类型 Starlink
阶段状态 In Orbit
所有者/国家 SPXS/US

大型星座

Loading constellations...